Location: Siratepeler Tepesi
(39.1042°N, 32.0781°E)
Time: 01:58:01
(UTC+00:00)

CZ-4 R/B - Pass Details

Date: 11 April 2026
Orbit: 490 x 537 km, 97.5° (Epoch: 13 May)

Event Time Altitude Azimuth Distance (km) Brightness Sun altitude
Exits shadow 19:01:14 - 238° (WSW) 1,870 4.2 -28.0°
Reaches altitude 10° 19:01:48 10° 245° (WSW) 1,767 4.2 -28.0°
Maximum altitude 19:03:16 12° 268° (W) 1,648 4.3 -28.3°
Drops below altitude 10° 19:04:44 10° 291° (WNW) 1,763 4.7 -28.5°
Sets 19:08:06 0° 324° (NW) 2,645 6.0 -29.0°
